Year,Month,Day,Hour,Minute,Value (Times are PST for temperature in C)
2021,08,11,00,00,24.60
2021,08,11,00,01,24.60
2021,08,11,00,02,24.70
2021,08,11,00,03,24.70
2021,08,11,00,04,24.70
2021,08,11,00,05,24.70
2021,08,11,00,06,24.70
2021,08,11,00,07,24.70
2021,08,11,00,08,24.70
2021,08,11,00,09,24.60
2021,08,11,00,10,24.60
2021,08,11,00,11,24.60
2021,08,11,00,12,24.60
2021,08,11,00,13,24.60
2021,08,11,00,14,24.60
2021,08,11,00,15,24.60
2021,08,11,00,16,24.60
2021,08,11,00,17,24.60
2021,08,11,00,18,24.50
2021,08,11,00,19,24.50
2021,08,11,00,20,24.40
2021,08,11,00,21,24.40
2021,08,11,00,22,24.40
2021,08,11,00,23,24.40
2021,08,11,00,24,24.40
2021,08,11,00,25,24.30
2021,08,11,00,26,24.30
2021,08,11,00,27,24.30
2021,08,11,00,28,24.30
2021,08,11,00,29,24.20
2021,08,11,00,30,24.20
2021,08,11,00,31,24.20
2021,08,11,00,32,24.10
2021,08,11,00,33,24.10
2021,08,11,00,34,24.10
2021,08,11,00,35,24.00
2021,08,11,00,36,24.00
2021,08,11,00,37,23.90
2021,08,11,00,38,23.90
2021,08,11,00,39,23.80
2021,08,11,00,40,23.80
2021,08,11,00,41,23.80
2021,08,11,00,42,23.80
2021,08,11,00,43,23.80
2021,08,11,00,44,23.80
2021,08,11,00,45,23.80
2021,08,11,00,46,23.80
2021,08,11,00,47,23.70
2021,08,11,00,48,23.70
2021,08,11,00,49,23.70
2021,08,11,00,50,23.70
2021,08,11,00,51,23.70
2021,08,11,00,52,23.70
2021,08,11,00,53,23.70
2021,08,11,00,54,23.70
2021,08,11,00,55,23.70
2021,08,11,00,56,23.70
2021,08,11,00,57,23.70
2021,08,11,00,58,23.70
2021,08,11,00,59,23.60
2021,08,11,01,00,23.60
2021,08,11,01,01,23.60
2021,08,11,01,02,23.60
2021,08,11,01,03,23.60
2021,08,11,01,04,23.60
2021,08,11,01,05,23.60
2021,08,11,01,06,23.50
2021,08,11,01,07,23.50
2021,08,11,01,08,23.50
2021,08,11,01,09,23.50
2021,08,11,01,10,23.50
2021,08,11,01,11,23.50
2021,08,11,01,12,23.50
2021,08,11,01,13,23.50
2021,08,11,01,14,23.50
2021,08,11,01,15,23.50
2021,08,11,01,16,23.50
2021,08,11,01,17,23.50
2021,08,11,01,18,23.40
2021,08,11,01,19,23.40
2021,08,11,01,20,23.40
2021,08,11,01,21,23.40
2021,08,11,01,22,23.40
2021,08,11,01,23,23.40
2021,08,11,01,24,23.40
2021,08,11,01,25,23.40
2021,08,11,01,26,23.30
2021,08,11,01,27,23.40
2021,08,11,01,28,23.40
2021,08,11,01,29,23.40
2021,08,11,01,30,23.40
2021,08,11,01,31,23.30
2021,08,11,01,32,23.30
2021,08,11,01,33,23.30
2021,08,11,01,34,23.30
2021,08,11,01,35,23.30
2021,08,11,01,36,23.30
2021,08,11,01,37,23.30
2021,08,11,01,38,23.30
2021,08,11,01,39,23.30
2021,08,11,01,40,23.30
2021,08,11,01,41,23.20
2021,08,11,01,42,23.20
2021,08,11,01,43,23.20
2021,08,11,01,44,23.20
2021,08,11,01,45,23.20
2021,08,11,01,46,23.20
2021,08,11,01,47,23.20
2021,08,11,01,48,23.20
2021,08,11,01,49,23.20
2021,08,11,01,50,23.20
2021,08,11,01,51,23.20
2021,08,11,01,52,23.20
2021,08,11,01,53,23.20
2021,08,11,01,54,23.20
2021,08,11,01,55,23.20
2021,08,11,01,56,23.20
2021,08,11,01,57,23.20
2021,08,11,01,58,23.20
2021,08,11,01,59,23.20
2021,08,11,02,00,23.20
2021,08,11,02,01,23.20
2021,08,11,02,02,23.20
2021,08,11,02,03,23.20
2021,08,11,02,04,23.20
2021,08,11,02,05,23.20
2021,08,11,02,06,23.20
2021,08,11,02,07,23.20
2021,08,11,02,08,23.20
2021,08,11,02,09,23.20
2021,08,11,02,10,23.20
2021,08,11,02,11,23.20
2021,08,11,02,12,23.10
2021,08,11,02,13,23.10
2021,08,11,02,14,23.10
2021,08,11,02,15,23.10
2021,08,11,02,16,23.10
2021,08,11,02,17,23.10
2021,08,11,02,18,23.10
2021,08,11,02,19,23.10
2021,08,11,02,20,23.10
2021,08,11,02,21,23.20
2021,08,11,02,22,23.20
2021,08,11,02,23,23.20
2021,08,11,02,24,23.20
2021,08,11,02,25,23.20
2021,08,11,02,26,23.20
2021,08,11,02,27,23.20
2021,08,11,02,28,23.20
2021,08,11,02,29,23.30
2021,08,11,02,30,23.30
2021,08,11,02,31,23.40
2021,08,11,02,32,23.40
2021,08,11,02,33,23.40
2021,08,11,02,34,23.40
2021,08,11,02,35,23.50
2021,08,11,02,36,23.50
2021,08,11,02,37,23.50
2021,08,11,02,38,23.50
2021,08,11,02,39,23.50
2021,08,11,02,40,23.60
2021,08,11,02,41,23.60
2021,08,11,02,42,23.60
2021,08,11,02,43,23.60
2021,08,11,02,44,23.60
2021,08,11,02,45,23.60
2021,08,11,02,46,23.60
2021,08,11,02,47,23.60
2021,08,11,02,48,23.60
2021,08,11,02,49,23.60
2021,08,11,02,50,23.60
2021,08,11,02,51,23.60
2021,08,11,02,52,23.60
2021,08,11,02,53,23.60
2021,08,11,02,54,23.60
2021,08,11,02,55,23.60
2021,08,11,02,56,23.50
2021,08,11,02,57,23.50
2021,08,11,02,58,23.40
2021,08,11,02,59,23.40
2021,08,11,03,00,23.40
2021,08,11,03,01,23.40
2021,08,11,03,02,23.40
2021,08,11,03,03,23.40
2021,08,11,03,04,23.30
2021,08,11,03,05,23.30
2021,08,11,03,06,23.30
2021,08,11,03,07,23.30
2021,08,11,03,08,23.30
2021,08,11,03,09,23.30
2021,08,11,03,10,23.30
2021,08,11,03,11,23.30
2021,08,11,03,12,23.30
2021,08,11,03,13,23.20
2021,08,11,03,14,23.20
2021,08,11,03,15,23.20
2021,08,11,03,16,23.20
2021,08,11,03,17,23.20
2021,08,11,03,18,23.20
2021,08,11,03,19,23.20
2021,08,11,03,20,23.20
2021,08,11,03,21,23.20
2021,08,11,03,22,23.10
2021,08,11,03,23,23.10
2021,08,11,03,24,23.10
2021,08,11,03,25,23.10
2021,08,11,03,26,23.10
2021,08,11,03,27,23.10
2021,08,11,03,28,23.10
2021,08,11,03,29,23.10
2021,08,11,03,30,23.10
2021,08,11,03,31,23.00
2021,08,11,03,32,23.00
2021,08,11,03,33,23.00
2021,08,11,03,34,23.00
2021,08,11,03,35,23.00
2021,08,11,03,36,23.00
2021,08,11,03,37,23.00
2021,08,11,03,38,23.00
2021,08,11,03,39,23.00
2021,08,11,03,40,23.00
2021,08,11,03,41,22.90
2021,08,11,03,42,22.90
2021,08,11,03,43,22.90
2021,08,11,03,44,22.90
2021,08,11,03,45,22.90
2021,08,11,03,46,22.90
2021,08,11,03,47,22.90
2021,08,11,03,48,22.90
2021,08,11,03,49,22.90
2021,08,11,03,50,23.00
2021,08,11,03,51,23.00
2021,08,11,03,52,23.00
2021,08,11,03,53,23.00
2021,08,11,03,54,23.00
2021,08,11,03,55,23.10
2021,08,11,03,56,23.10
2021,08,11,03,57,23.10
2021,08,11,03,58,23.10
2021,08,11,03,59,23.10
2021,08,11,04,00,23.10
2021,08,11,04,01,23.10
2021,08,11,04,02,23.10
2021,08,11,04,03,23.10
2021,08,11,04,04,23.10
2021,08,11,04,05,23.10
2021,08,11,04,06,23.10
2021,08,11,04,07,23.10
2021,08,11,04,08,23.10
2021,08,11,04,09,23.10
2021,08,11,04,10,23.10
2021,08,11,04,11,23.10
2021,08,11,04,12,23.10
2021,08,11,04,13,23.10
2021,08,11,04,14,23.10
2021,08,11,04,15,23.10
2021,08,11,04,16,23.10
2021,08,11,04,17,23.10
2021,08,11,04,18,23.10
2021,08,11,04,19,23.00
2021,08,11,04,20,23.00
2021,08,11,04,21,23.00
2021,08,11,04,22,23.00
2021,08,11,04,23,22.90
2021,08,11,04,24,22.90
2021,08,11,04,25,22.90
2021,08,11,04,26,22.90
2021,08,11,04,27,22.90
2021,08,11,04,28,22.90
2021,08,11,04,29,22.90
2021,08,11,04,30,22.90
2021,08,11,04,31,22.90
2021,08,11,04,32,22.80
2021,08,11,04,33,22.80
2021,08,11,04,34,22.80
2021,08,11,04,35,22.80
2021,08,11,04,36,22.80
2021,08,11,04,37,22.80
2021,08,11,04,38,22.80
2021,08,11,04,39,22.80
2021,08,11,04,40,22.80
2021,08,11,04,41,22.80
2021,08,11,04,42,22.80
2021,08,11,04,43,22.70
2021,08,11,04,44,22.70
2021,08,11,04,45,22.70
2021,08,11,04,46,22.70
2021,08,11,04,47,22.70
2021,08,11,04,48,22.70
2021,08,11,04,49,22.70
2021,08,11,04,50,22.70
2021,08,11,04,51,22.70
2021,08,11,04,52,22.60
2021,08,11,04,53,22.60
2021,08,11,04,54,22.60
2021,08,11,04,55,22.60
2021,08,11,04,56,22.60
2021,08,11,04,57,22.60
2021,08,11,04,58,22.60
2021,08,11,04,59,22.60
2021,08,11,05,00,22.60
2021,08,11,05,01,22.60
2021,08,11,05,02,22.60
2021,08,11,05,03,22.60
2021,08,11,05,04,22.60
2021,08,11,05,05,22.60
2021,08,11,05,06,22.60
2021,08,11,05,07,22.60
2021,08,11,05,08,22.60
2021,08,11,05,09,22.60
2021,08,11,05,10,22.70
2021,08,11,05,11,22.70
2021,08,11,05,12,22.70
2021,08,11,05,13,22.70
2021,08,11,05,14,22.70
2021,08,11,05,15,22.70
2021,08,11,05,16,22.70
2021,08,11,05,17,22.70
2021,08,11,05,18,22.70
2021,08,11,05,19,22.70
2021,08,11,05,20,22.70
2021,08,11,05,21,22.70
2021,08,11,05,22,22.70
2021,08,11,05,23,22.70
2021,08,11,05,24,22.70
2021,08,11,05,25,22.60
2021,08,11,05,26,22.70
2021,08,11,05,27,22.70
2021,08,11,05,28,22.70
2021,08,11,05,29,22.70
2021,08,11,05,30,22.70
2021,08,11,05,31,22.70
2021,08,11,05,32,22.70
2021,08,11,05,33,22.70
2021,08,11,05,34,22.70
2021,08,11,05,35,22.70
2021,08,11,05,36,22.70
2021,08,11,05,37,22.70
2021,08,11,05,38,22.60
2021,08,11,05,39,22.60
2021,08,11,05,40,22.60
2021,08,11,05,41,22.60
2021,08,11,05,42,22.60
2021,08,11,05,43,22.60
2021,08,11,05,44,22.60
2021,08,11,05,45,22.60
2021,08,11,05,46,22.60
2021,08,11,05,47,22.60
2021,08,11,05,48,22.60
2021,08,11,05,49,22.60
2021,08,11,05,50,22.50
2021,08,11,05,51,22.50
2021,08,11,05,52,22.50
2021,08,11,05,53,22.40
2021,08,11,05,54,22.40
2021,08,11,05,55,22.40
2021,08,11,05,56,22.40
2021,08,11,05,57,22.40
2021,08,11,05,58,22.40
2021,08,11,05,59,22.40
2021,08,11,06,00,22.40
2021,08,11,06,01,22.40
2021,08,11,06,02,22.30
2021,08,11,06,03,22.30
2021,08,11,06,04,22.30
2021,08,11,06,05,22.30
2021,08,11,06,06,22.30
2021,08,11,06,07,22.30
2021,08,11,06,08,22.30
2021,08,11,06,09,22.30
2021,08,11,06,10,22.30
2021,08,11,06,11,22.30
2021,08,11,06,12,22.30
2021,08,11,06,13,22.30
2021,08,11,06,14,22.30
2021,08,11,06,15,22.30
2021,08,11,06,16,22.20
2021,08,11,06,17,22.20
2021,08,11,06,18,22.20
2021,08,11,06,19,22.20
2021,08,11,06,20,22.20
2021,08,11,06,21,22.20
2021,08,11,06,22,22.20
2021,08,11,06,23,22.20
2021,08,11,06,24,22.20
2021,08,11,06,25,22.20
2021,08,11,06,26,22.20
2021,08,11,06,27,22.20
2021,08,11,06,28,22.20
2021,08,11,06,29,22.20
2021,08,11,06,30,22.20
2021,08,11,06,31,22.20
2021,08,11,06,32,22.10
2021,08,11,06,33,22.10
2021,08,11,06,34,22.10
2021,08,11,06,35,22.10
2021,08,11,06,36,22.10
2021,08,11,06,37,22.10
2021,08,11,06,38,22.10
2021,08,11,06,39,22.10
2021,08,11,06,40,22.10
2021,08,11,06,41,22.10
2021,08,11,06,42,22.10
2021,08,11,06,43,22.10
2021,08,11,06,44,22.10
2021,08,11,06,45,22.10
2021,08,11,06,46,22.10
2021,08,11,06,47,22.10
2021,08,11,06,48,22.10
2021,08,11,06,49,22.10
2021,08,11,06,50,22.10
2021,08,11,06,51,22.10
2021,08,11,06,52,22.10
2021,08,11,06,53,22.10
2021,08,11,06,54,22.10
2021,08,11,06,55,22.10
2021,08,11,06,56,22.10
2021,08,11,06,57,22.20
2021,08,11,06,58,22.20
2021,08,11,06,59,22.20
2021,08,11,07,00,22.20
2021,08,11,07,01,22.20
2021,08,11,07,02,22.20
2021,08,11,07,03,22.20
2021,08,11,07,04,22.20
2021,08,11,07,05,22.20
2021,08,11,07,06,22.30
2021,08,11,07,07,22.30
2021,08,11,07,08,22.30
2021,08,11,07,09,22.30
2021,08,11,07,10,22.30
2021,08,11,07,11,22.30
2021,08,11,07,12,22.30
2021,08,11,07,13,22.30
2021,08,11,07,14,22.30
2021,08,11,07,15,22.30
2021,08,11,07,16,22.30
2021,08,11,07,17,22.30
2021,08,11,07,18,22.30
2021,08,11,07,19,22.30
2021,08,11,07,20,22.30
2021,08,11,07,21,22.30
2021,08,11,07,22,22.30
2021,08,11,07,23,22.30
2021,08,11,07,24,22.30
2021,08,11,07,25,22.30
2021,08,11,07,26,22.40
2021,08,11,07,27,22.40
2021,08,11,07,28,22.40
2021,08,11,07,29,22.30
2021,08,11,07,30,22.30
2021,08,11,07,31,22.30
2021,08,11,07,32,22.30
2021,08,11,07,33,22.30
2021,08,11,07,34,22.30
2021,08,11,07,35,22.30
2021,08,11,07,36,22.30
2021,08,11,07,37,22.30
2021,08,11,07,38,22.30
2021,08,11,07,39,22.30
2021,08,11,07,40,22.30
2021,08,11,07,41,22.40
2021,08,11,07,42,22.40
2021,08,11,07,43,22.40
2021,08,11,07,44,22.40
2021,08,11,07,45,22.50
2021,08,11,07,46,22.50
2021,08,11,07,47,22.60
2021,08,11,07,48,22.50
2021,08,11,07,49,22.50
2021,08,11,07,50,22.50
2021,08,11,07,51,22.50
2021,08,11,07,52,22.60
2021,08,11,07,53,22.60
2021,08,11,07,54,22.50
2021,08,11,07,55,22.60
2021,08,11,07,56,22.60
2021,08,11,07,57,22.60
2021,08,11,07,58,22.50
2021,08,11,07,59,22.50
2021,08,11,08,00,22.60
2021,08,11,08,01,22.60
2021,08,11,08,02,22.60
2021,08,11,08,03,22.60
2021,08,11,08,04,22.60
2021,08,11,08,05,22.60
2021,08,11,08,06,22.60
2021,08,11,08,07,22.60
2021,08,11,08,08,22.60
2021,08,11,08,09,22.60
2021,08,11,08,10,22.60
2021,08,11,08,11,22.60
2021,08,11,08,12,22.70
2021,08,11,08,13,22.70
2021,08,11,08,14,22.70
2021,08,11,08,15,22.70
2021,08,11,08,16,22.70
2021,08,11,08,17,22.70
2021,08,11,08,18,22.70
2021,08,11,08,19,22.80
2021,08,11,08,20,22.80
2021,08,11,08,21,22.80
2021,08,11,08,22,22.80
2021,08,11,08,23,22.80
2021,08,11,08,24,22.80
2021,08,11,08,25,22.90
2021,08,11,08,26,22.90
2021,08,11,08,27,22.90
2021,08,11,08,28,22.90
2021,08,11,08,29,23.00
2021,08,11,08,30,23.00
2021,08,11,08,31,23.10
2021,08,11,08,32,23.10
2021,08,11,08,33,23.10
2021,08,11,08,34,23.10
2021,08,11,08,35,23.20
2021,08,11,08,36,23.20
2021,08,11,08,37,23.10
2021,08,11,08,38,23.10
2021,08,11,08,39,23.10
2021,08,11,08,40,23.10
2021,08,11,08,41,23.20
2021,08,11,08,42,23.20
2021,08,11,08,43,23.20
2021,08,11,08,44,23.20
2021,08,11,08,45,23.20
2021,08,11,08,46,23.20
2021,08,11,08,47,23.20
2021,08,11,08,48,23.20
2021,08,11,08,49,23.20
2021,08,11,08,50,23.20
2021,08,11,08,51,23.10
2021,08,11,08,52,23.10
2021,08,11,08,53,23.10
2021,08,11,08,54,23.20
2021,08,11,08,55,23.20
2021,08,11,08,56,23.20
2021,08,11,08,57,23.10
2021,08,11,08,58,23.10
2021,08,11,08,59,23.10
2021,08,11,09,00,23.10
2021,08,11,09,01,23.10
2021,08,11,09,02,23.10
2021,08,11,09,03,23.20
2021,08,11,09,04,23.20
2021,08,11,09,05,23.20
2021,08,11,09,06,23.20
2021,08,11,09,07,23.20
2021,08,11,09,08,23.20
2021,08,11,09,09,23.20
2021,08,11,09,10,23.20
2021,08,11,09,11,23.20
2021,08,11,09,12,23.20
2021,08,11,09,13,23.20
2021,08,11,09,14,23.20
2021,08,11,09,15,23.20
2021,08,11,09,16,23.30
2021,08,11,09,17,23.30
2021,08,11,09,18,23.30
2021,08,11,09,19,23.30
2021,08,11,09,20,23.30
2021,08,11,09,21,23.30
2021,08,11,09,22,23.30
2021,08,11,09,23,23.30
2021,08,11,09,24,23.40
2021,08,11,09,25,23.40
2021,08,11,09,26,23.40
2021,08,11,09,27,23.40
2021,08,11,09,28,23.30
2021,08,11,09,29,23.30
2021,08,11,09,30,23.30
2021,08,11,09,31,23.30
2021,08,11,09,32,23.30
2021,08,11,09,33,23.30
2021,08,11,09,34,23.40
2021,08,11,09,35,23.40
2021,08,11,09,36,23.40
2021,08,11,09,37,23.50
2021,08,11,09,38,23.50
2021,08,11,09,39,23.50
2021,08,11,09,40,23.60
2021,08,11,09,41,23.60
2021,08,11,09,42,23.60
2021,08,11,09,43,23.70
2021,08,11,09,44,23.70
2021,08,11,09,45,23.70
2021,08,11,09,46,23.70
2021,08,11,09,47,23.70
2021,08,11,09,48,23.70
2021,08,11,09,49,23.70
2021,08,11,09,50,23.70
2021,08,11,09,51,23.70
2021,08,11,09,52,23.70
2021,08,11,09,53,23.70
2021,08,11,09,54,23.70
2021,08,11,09,55,23.70
2021,08,11,09,56,23.70
2021,08,11,09,57,23.70
2021,08,11,09,58,23.70
2021,08,11,09,59,23.70
2021,08,11,10,00,23.70
2021,08,11,10,01,23.80
2021,08,11,10,02,23.80
2021,08,11,10,03,23.80
2021,08,11,10,04,23.80
2021,08,11,10,05,23.90
2021,08,11,10,06,23.90
2021,08,11,10,07,23.90
2021,08,11,10,08,23.90
2021,08,11,10,09,23.90
2021,08,11,10,10,23.90
2021,08,11,10,11,23.90
2021,08,11,10,12,23.90
2021,08,11,10,13,23.90
2021,08,11,10,14,24.00
2021,08,11,10,15,24.00
2021,08,11,10,16,24.10
2021,08,11,10,17,24.10
2021,08,11,10,18,24.10
2021,08,11,10,19,24.00
2021,08,11,10,20,23.90
2021,08,11,10,21,23.90
2021,08,11,10,22,24.00
2021,08,11,10,23,24.00
2021,08,11,10,24,24.00
2021,08,11,10,25,23.90
2021,08,11,10,26,23.90
2021,08,11,10,27,23.90
2021,08,11,10,28,23.90
2021,08,11,10,29,23.90
2021,08,11,10,30,23.90
2021,08,11,10,31,23.90
2021,08,11,10,32,23.90
2021,08,11,10,33,23.90
2021,08,11,10,34,24.00
2021,08,11,10,35,24.00
2021,08,11,10,36,23.90
2021,08,11,10,37,23.90
2021,08,11,10,38,24.00
2021,08,11,10,39,24.00
2021,08,11,10,40,24.00
2021,08,11,10,41,23.90
2021,08,11,10,42,24.00
2021,08,11,10,43,24.00
2021,08,11,10,44,24.00
2021,08,11,10,45,23.90
2021,08,11,10,46,23.90
2021,08,11,10,47,23.90
2021,08,11,10,48,23.90
2021,08,11,10,49,23.80
2021,08,11,10,50,23.80
2021,08,11,10,51,23.90
2021,08,11,10,52,23.90
2021,08,11,10,53,23.90
2021,08,11,10,54,23.90
2021,08,11,10,55,23.90
2021,08,11,10,56,23.90
2021,08,11,10,57,23.90
2021,08,11,10,58,23.90
2021,08,11,10,59,24.00
2021,08,11,11,00,24.00
2021,08,11,11,01,24.00
2021,08,11,11,02,24.00
2021,08,11,11,03,23.90
2021,08,11,11,04,23.90
2021,08,11,11,05,23.90
2021,08,11,11,06,24.00
2021,08,11,11,07,24.00
2021,08,11,11,08,24.10
2021,08,11,11,09,24.10
2021,08,11,11,10,24.10
2021,08,11,11,11,24.10
2021,08,11,11,12,24.20
2021,08,11,11,13,24.20
2021,08,11,11,14,24.20
2021,08,11,11,15,24.20
2021,08,11,11,16,24.30
2021,08,11,11,17,24.40
2021,08,11,11,18,24.50
2021,08,11,11,19,24.60
2021,08,11,11,20,24.60
2021,08,11,11,21,24.60
2021,08,11,11,22,24.60
2021,08,11,11,23,24.60
2021,08,11,11,24,24.60
2021,08,11,11,25,24.60
2021,08,11,11,26,24.60
2021,08,11,11,27,24.60
2021,08,11,11,28,24.70
2021,08,11,11,29,24.70
2021,08,11,11,30,24.80
2021,08,11,11,31,24.80
2021,08,11,11,32,24.80
2021,08,11,11,33,24.90
2021,08,11,11,34,24.90
2021,08,11,11,35,24.90
2021,08,11,11,36,24.90
2021,08,11,11,37,24.90
2021,08,11,11,38,24.90
2021,08,11,11,39,24.90
2021,08,11,11,40,25.00
2021,08,11,11,41,25.10
2021,08,11,11,42,25.10
2021,08,11,11,43,25.20
2021,08,11,11,44,25.20
2021,08,11,11,45,25.30
2021,08,11,11,46,25.30
2021,08,11,11,47,25.30
2021,08,11,11,48,25.30
2021,08,11,11,49,25.30
2021,08,11,11,50,25.20
2021,08,11,11,51,25.30
2021,08,11,11,52,25.30
2021,08,11,11,53,25.30
2021,08,11,11,54,25.40
2021,08,11,11,55,25.40
2021,08,11,11,56,25.40
2021,08,11,11,57,25.40
2021,08,11,11,58,25.50
2021,08,11,11,59,25.60
2021,08,11,12,00,25.60
2021,08,11,12,01,25.60
2021,08,11,12,02,25.70
2021,08,11,12,03,25.70
2021,08,11,12,04,25.80
2021,08,11,12,05,25.80
2021,08,11,12,06,25.90
2021,08,11,12,07,25.90
2021,08,11,12,08,25.90
2021,08,11,12,09,25.90
2021,08,11,12,10,25.90
2021,08,11,12,11,25.90
2021,08,11,12,12,25.80
2021,08,11,12,13,25.90
2021,08,11,12,14,25.90
2021,08,11,12,15,25.90
2021,08,11,12,16,26.00
2021,08,11,12,17,26.00
2021,08,11,12,18,26.10
2021,08,11,12,19,26.10
2021,08,11,12,20,26.10
2021,08,11,12,21,26.10
2021,08,11,12,22,26.20
2021,08,11,12,23,26.20
2021,08,11,12,24,26.20
2021,08,11,12,25,26.20
2021,08,11,12,26,26.30
2021,08,11,12,27,26.30
2021,08,11,12,28,26.30
2021,08,11,12,29,26.40
2021,08,11,12,30,26.40
2021,08,11,12,31,26.40
2021,08,11,12,32,26.40
2021,08,11,12,33,26.40
2021,08,11,12,34,26.40
2021,08,11,12,35,26.50
2021,08,11,12,36,26.40
2021,08,11,12,37,26.40
2021,08,11,12,38,26.50
2021,08,11,12,39,26.60
2021,08,11,12,40,26.60
2021,08,11,12,41,26.60
2021,08,11,12,42,26.70
2021,08,11,12,43,26.70
2021,08,11,12,44,26.70
2021,08,11,12,45,26.80
2021,08,11,12,46,26.80
2021,08,11,12,47,26.80
2021,08,11,12,48,26.80
2021,08,11,12,49,26.80
2021,08,11,12,50,26.80
2021,08,11,12,51,26.90
2021,08,11,12,52,26.90
2021,08,11,12,53,26.90
2021,08,11,12,54,27.00
2021,08,11,12,55,27.00
2021,08,11,12,56,27.00
2021,08,11,12,57,26.90
2021,08,11,12,58,26.80
2021,08,11,12,59,26.90
2021,08,11,13,00,26.90
2021,08,11,13,01,26.90
2021,08,11,13,02,27.00
2021,08,11,13,03,27.00
2021,08,11,13,04,26.90
2021,08,11,13,05,26.90
2021,08,11,13,06,27.00
2021,08,11,13,07,27.00
2021,08,11,13,08,27.00
2021,08,11,13,09,27.10
2021,08,11,13,10,27.20
2021,08,11,13,11,27.30
2021,08,11,13,12,27.40
2021,08,11,13,13,27.40
2021,08,11,13,14,27.40
2021,08,11,13,15,27.40
2021,08,11,13,16,27.40
2021,08,11,13,17,27.40
2021,08,11,13,18,27.40
2021,08,11,13,19,27.40
2021,08,11,13,20,27.40
2021,08,11,13,21,27.50
2021,08,11,13,22,27.60
2021,08,11,13,23,27.60
2021,08,11,13,24,27.50
2021,08,11,13,25,27.50
2021,08,11,13,26,27.40
2021,08,11,13,27,27.40
2021,08,11,13,28,27.40
2021,08,11,13,29,27.30
2021,08,11,13,30,27.40
2021,08,11,13,31,27.50
2021,08,11,13,32,27.60
2021,08,11,13,33,27.60
2021,08,11,13,34,27.60
2021,08,11,13,35,27.50
2021,08,11,13,36,27.60
2021,08,11,13,37,27.60
2021,08,11,13,38,27.60
2021,08,11,13,39,27.60
2021,08,11,13,40,27.70
2021,08,11,13,41,27.70
2021,08,11,13,42,27.70
2021,08,11,13,43,27.70
2021,08,11,13,44,27.70
2021,08,11,13,45,27.70
2021,08,11,13,46,27.80
2021,08,11,13,47,27.80
2021,08,11,13,48,27.80
2021,08,11,13,49,27.90
2021,08,11,13,50,27.90
2021,08,11,13,51,28.00
2021,08,11,13,52,28.00
2021,08,11,13,53,28.00
2021,08,11,13,54,28.10
2021,08,11,13,55,28.10
2021,08,11,13,56,28.10
2021,08,11,13,57,28.10
2021,08,11,13,58,28.10
2021,08,11,13,59,28.10
2021,08,11,14,00,28.10
2021,08,11,14,01,28.20
2021,08,11,14,02,28.30
2021,08,11,14,03,28.20
2021,08,11,14,04,28.20
2021,08,11,14,05,28.20
2021,08,11,14,06,28.20
2021,08,11,14,07,28.10
2021,08,11,14,08,28.10
2021,08,11,14,09,28.10
2021,08,11,14,10,28.10
2021,08,11,14,11,28.10
2021,08,11,14,12,28.00
2021,08,11,14,13,28.10
2021,08,11,14,14,28.10
2021,08,11,14,15,28.10
2021,08,11,14,16,28.10
2021,08,11,14,17,28.10
2021,08,11,14,18,28.20
2021,08,11,14,19,28.20
2021,08,11,14,20,28.20
2021,08,11,14,21,28.20
2021,08,11,14,22,28.20
2021,08,11,14,23,28.10
2021,08,11,14,24,28.10
2021,08,11,14,25,28.10
2021,08,11,14,26,28.10
2021,08,11,14,27,28.20
2021,08,11,14,28,28.30
2021,08,11,14,29,28.40
2021,08,11,14,30,28.40
2021,08,11,14,31,28.40
2021,08,11,14,32,28.30
2021,08,11,14,33,28.40
2021,08,11,14,34,28.40
2021,08,11,14,35,28.40
2021,08,11,14,36,28.50
2021,08,11,14,37,28.40
2021,08,11,14,38,28.40
2021,08,11,14,39,28.50
2021,08,11,14,40,28.50
2021,08,11,14,41,28.60
2021,08,11,14,42,28.60
2021,08,11,14,43,28.60
2021,08,11,14,44,28.60
2021,08,11,14,45,28.70
2021,08,11,14,46,28.70
2021,08,11,14,47,28.60
2021,08,11,14,48,28.50
2021,08,11,14,49,28.40
2021,08,11,14,50,28.30
2021,08,11,14,51,28.30
2021,08,11,14,52,28.30
2021,08,11,14,53,28.40
2021,08,11,14,54,28.50
2021,08,11,14,55,28.50
2021,08,11,14,56,28.60
2021,08,11,14,57,28.60
2021,08,11,14,58,28.60
2021,08,11,14,59,28.60
2021,08,11,15,00,28.60
2021,08,11,15,01,28.60
2021,08,11,15,02,28.70
2021,08,11,15,03,28.70
2021,08,11,15,04,28.70
2021,08,11,15,05,28.70
2021,08,11,15,06,28.80
2021,08,11,15,07,28.80
2021,08,11,15,08,28.80
2021,08,11,15,09,28.80
2021,08,11,15,10,28.80
2021,08,11,15,11,28.90
2021,08,11,15,12,29.00
2021,08,11,15,13,29.00
2021,08,11,15,14,29.10
2021,08,11,15,15,29.20
2021,08,11,15,16,29.30
2021,08,11,15,17,29.30
2021,08,11,15,18,29.30
2021,08,11,15,19,29.20
2021,08,11,15,20,29.20
2021,08,11,15,21,29.20
2021,08,11,15,22,29.20
2021,08,11,15,23,29.10
2021,08,11,15,24,29.00
2021,08,11,15,25,29.00
2021,08,11,15,26,28.90
2021,08,11,15,27,28.90
2021,08,11,15,28,28.90
2021,08,11,15,29,28.90
2021,08,11,15,30,28.90
2021,08,11,15,31,28.90
2021,08,11,15,32,28.90
2021,08,11,15,33,29.00
2021,08,11,15,34,29.00
2021,08,11,15,35,29.10
2021,08,11,15,36,29.10
2021,08,11,15,37,29.20
2021,08,11,15,38,29.20
2021,08,11,15,39,29.20
2021,08,11,15,40,29.20
2021,08,11,15,41,29.20
2021,08,11,15,42,29.20
2021,08,11,15,43,29.30
2021,08,11,15,44,29.30
2021,08,11,15,45,29.30
2021,08,11,15,46,29.30
2021,08,11,15,47,29.30
2021,08,11,15,48,29.30
2021,08,11,15,49,29.40
2021,08,11,15,50,29.40
2021,08,11,15,51,29.40
2021,08,11,15,52,29.50
2021,08,11,15,53,29.50
2021,08,11,15,54,29.50
2021,08,11,15,55,29.60
2021,08,11,15,56,29.60
2021,08,11,15,57,29.60
2021,08,11,15,58,29.60
2021,08,11,15,59,29.60
2021,08,11,16,00,29.60
2021,08,11,16,01,29.60
2021,08,11,16,02,29.60
2021,08,11,16,03,29.70
2021,08,11,16,04,29.70
2021,08,11,16,05,29.70
2021,08,11,16,06,29.80
2021,08,11,16,07,29.80
2021,08,11,16,08,29.80
2021,08,11,16,09,29.80
2021,08,11,16,10,29.80
2021,08,11,16,11,29.80
2021,08,11,16,12,29.90
2021,08,11,16,13,29.90
2021,08,11,16,14,30.00
2021,08,11,16,15,30.10
2021,08,11,16,16,30.10
2021,08,11,16,17,30.00
2021,08,11,16,18,29.90
2021,08,11,16,19,29.90
2021,08,11,16,20,29.90
2021,08,11,16,21,29.90
2021,08,11,16,22,30.00
2021,08,11,16,23,29.90
2021,08,11,16,24,29.90
2021,08,11,16,25,29.90
2021,08,11,16,26,29.90
2021,08,11,16,27,29.90
2021,08,11,16,28,29.80
2021,08,11,16,29,29.80
2021,08,11,16,30,29.80
2021,08,11,16,31,29.90
2021,08,11,16,32,29.90
2021,08,11,16,33,29.90
2021,08,11,16,34,29.80
2021,08,11,16,35,29.80
2021,08,11,16,36,29.80
2021,08,11,16,37,29.80
2021,08,11,16,38,29.80
2021,08,11,16,39,29.70
2021,08,11,16,40,29.80
2021,08,11,16,41,29.80
2021,08,11,16,42,29.80
2021,08,11,16,43,29.80
2021,08,11,16,44,29.80
2021,08,11,16,45,29.80
2021,08,11,16,46,29.80
2021,08,11,16,47,29.80
2021,08,11,16,48,29.80
2021,08,11,16,49,29.90
2021,08,11,16,50,29.90
2021,08,11,16,51,29.90
2021,08,11,16,52,29.90
2021,08,11,16,53,29.80
2021,08,11,16,54,29.80
2021,08,11,16,55,29.90
2021,08,11,16,56,29.90
2021,08,11,16,57,29.90
2021,08,11,16,58,30.00
2021,08,11,16,59,30.00
2021,08,11,17,00,30.00
2021,08,11,17,01,30.10
2021,08,11,17,02,30.10
2021,08,11,17,03,30.10
2021,08,11,17,04,30.10
2021,08,11,17,05,30.00
2021,08,11,17,06,30.00
2021,08,11,17,07,30.00
2021,08,11,17,08,30.00
2021,08,11,17,09,30.00
2021,08,11,17,10,30.00
2021,08,11,17,11,30.10
2021,08,11,17,12,30.10
2021,08,11,17,13,30.10
2021,08,11,17,14,30.20
2021,08,11,17,15,30.20
2021,08,11,17,16,30.20
2021,08,11,17,17,30.30
2021,08,11,17,18,30.30
2021,08,11,17,19,30.30